Other Public Products
Issued by NWS Grand Forks, ND

Home | Current Version | Previous Version | Text Only | Print | Product List | Glossary On
Versions: 1 2 3 4 5 6 7 8 9 10 11 12 13 14 15 16 17 18 19 20 21 22 23 24 25 26 27 28 29 30 31 32 33 34 35 36 37 38 39 40 41 42 43 44 45 46 47 48 49 50
000
FPUS83 KFGF 301931
OPUFGF
PRAIRIE TO PINES WEATHER ROUNDUP
NATIONAL WEATHER SERVICE EASTERN NORTH DAKOTA/GRAND FORKS ND
100 PM CST FRI JAN 30 2015

 **SATELLITE DATA USED TO AUGMENT SKY COVER AT AUTOMATED STATIONS**
 *****  WEATHER ACROSS EASTERN NORTH DAKOTA  *****

CITY           SKY/WX    TMP DP  RH WIND       PRES   REMARKS
GRAND FORKS    PTSUNNY   25  16  68 S20       30.18F WCI  11
GRAND FORKS AF SUNNY     27  17  64 S14       30.16F WCI  16
GRAND CITY NWS   N/A     27 N/A N/A SW10        N/A  WCI  17
BUXTON           N/A     26  17  69 S20         N/A  WCI  13
DEVILS LAKE    SUNNY     30  21  69 W14       30.09F WCI  20
FARGO          MOSUNNY   26  17  68 S22G31    30.20F WCI  12
WAHPETON ARPT  MOCLDY    27  19  74 S20       30.22F WCI  13
$$

 *****  WEATHER ACROSS CENTRAL AND WESTERN NORTH DAKOTA  *****

CITY           SKY/WX    TMP DP  RH WIND       PRES   REMARKS
JAMESTOWN      SUNNY     36  23  59 W13       30.12F
BISMARCK       SUNNY     40  26  57 W10       30.16F
MINOT          MOSUNNY   37  27  67 NW18      30.13S
MINOT AFB      PTSUNNY   34  32  93 NW18      30.12F WCI  23
GARRISON         N/A     38  29  70 NW15      30.13F
WILLISTON      SUNNY     39  27  62 N10       30.20F
DICKINSON      SUNNY     44  28  53 NW13      30.14F
HETTINGER      SUNNY     48  27  44 NW14      30.16F
$$

 *****  OTHER OBSERVATIONS NORTHEAST NORTH DAKOTA  *****

CITY           SKY/WX    TMP DP  RH WIND       PRES   REMARKS
WALHALLA         N/A     21  21 100 SE8       30.13F WCI  12
LANGDON        NOT AVBL
CAVALIER       MOCLDY    21  16  79 S7        30.14F WCI  13
GRAFTON        NOT AVBL
CANDO          FAIR      32  23  69 NW12      30.10F WCI  23
FORT TOTTEN      N/A     33  22  65 W6        29.95S
ROLLA          FAIR      27  25  93 NW10      30.08F WCI  17
RUGBY          FAIR      28  23  80 W12       30.10F WCI  18
 ***** THE ABOVE OBSERVATIONS ARE NON NWS ARE NOT QUALITY
        CONTROLLED AND MAY MIS-REPORT RAIN FOR SNOW...
$$

 *****  OTHER OBSERVATIONS SOUTHEAST NORTH DAKOTA *****

CITY           SKY/WX    TMP DP  RH WIND       PRES   REMARKS
COOPERSTOWN    NOT AVBL
VALLEY CITY    FAIR      32  27  80 SW17      30.13F WCI  21
OAKES            N/A     32  27  80 SW17      30.16F WCI  21
GWINNER        CLEAR     37  30  75 SW18      30.18F
SHEYENNE NWR     N/A     31  21  65 S13       29.95  WCI  21
BUFFALO        NOT AVBL
WYNDMERE         N/A     30  25  80 S13         N/A  WCI  20
 ***** THE ABOVE OBSERVATIONS ARE NON NWS ARE NOT QUALITY
       CONTROLLED AND MAY MIS-REPORT RAIN FOR SNOW...
$$

  *****  WEATHER ACROSS NORTHERN MINNESOTA  *****

CITY           SKY/WX    TMP DP  RH WIND       PRES   REMARKS
FLAG ISLAND    LGT SNOW   7   3  85 SE16      30.20F WCI -11
WARROAD        PTSUNNY   14   9  79 SE7       30.19F HAZE    WCI   4
ROSEAU         PTSUNNY   16  10  79 S9        30.18F WCI   4
HALLOCK        CLOUDY    19  16  86 S15       30.17F WCI   5
THF RVR FALLS  CLOUDY    19  14  79 S9        30.18F WCI   9
HALSTAD          N/A     26  16  64 S22         N/A  WCI  12
FOSSTON        PTSUNNY   19  16  86 S13       30.18F WCI   7
BAUDETTE       LGT SNOW  11   5  77 S9G16     30.20F WCI  -2
WASKISH        CLOUDY    16   7  67 SE6       30.24F WCI   7
CROOKSTON      CLOUDY    23  18  80 SW21      30.20S WCI   8
$$
  *****  WEATHER ACROSS CENTRAL AND WEST MINNESOTA  *****

CITY           SKY/WX    TMP DP  RH WIND       PRES   REMARKS
BEMIDJI        CLOUDY    15   9  76 SE8       30.23F WCI   5
PARK RAPIDS    CLOUDY    19  11  70 S13       30.24F WCI   6
WADENA         CLOUDY    19  12  73 S14       30.24F WCI   6
DETROIT LAKES  MOSUNNY   21  18  86 S17       30.20F WCI   7
MOORHEAD       SUNNY     25  21  86 S24       30.20F WCI   9
FERGUS FALLS   PTSUNNY   21  16  79 S21       30.26F WCI   6
ELBOW LAKE     MOCLDY    22  17  82 SE20      30.25F WCI   7
MORRIS MN      PTSUNNY   25  19  80 SE21      30.26F WCI  10
STAPLES        PTSUNNY   19  10  68 S13       30.27F WCI   7
WHEATON        SUNNY     27  21  80 SE20G25   30.24F WCI  13
$$
  *****  WEATHER ELSEWHERE ACROSS MINNESOTA  *****

CITY           SKY/WX    TMP DP  RH WIND       PRES   REMARKS
DULUTH         CLOUDY    11   1  64 S9        30.33F WCI  -2
INTRNTL FALLS  LGT SNOW   7   2  80 SE7       30.27F WCI  -5
ELY            LGT SNOW   9   0  66 S5        30.30F WCI   0
CLOQUET        CLOUDY    14   3  62 S8        30.33F WCI   3
BRAINERD       PTSUNNY   19   9  65 S10       30.32F WCI   7
HIBBING        CLOUDY    10   1  67 S3        30.32F
ALEXANDRIA     CLOUDY    18  14  84 S15       30.30F WCI   4
SAINT CLOUD    SUNNY     21  10  62 S15       30.37F WCI   8
MINNEAPOLIS    PTSUNNY   22  10  60 SW8       30.44F WCI  12
$$

  *****  WEATHER ACROSS SOUTH DAKOTA  *****

CITY           SKY/WX    TMP DP  RH WIND       PRES   REMARKS
SIOUX FALLS    MOSUNNY   33  24  69 S16       30.31F WCI  23
BROOKINGS      NOT AVBL
WATERTOWN      SUNNY     33  25  72 S20G25    30.21F WCI  21
HURON          SUNNY     37  27  67 S15G21    30.21F
SISSETON         N/A     34  26  72 S17       30.20F WCI  23
ABERDEEN       SUNNY     34  25  69 S18       30.20F WCI  23
MITCHELL       SUNNY     38  28  67 S15       30.25F
PIERRE         SUNNY     42  24  49 SW6       30.16F
MOBRIDGE       SUNNY     37  26  64 S6        30.14F
RAPID CITY     MOSUNNY   51  24  34 N12       30.15F
$$

  *****  SOME WEATHER IN NEARBY STATES *****

CITY           SKY/WX    TMP DP  RH WIND       PRES   REMARKS
GLASGOW MT     SUNNY     34  28  79 NW7       30.23F
GREAT FALLS MT SUNNY     45  18  34 SW12      30.19F
CHEYENNE WY    CLOUDY    46  25  43 N9        30.14F
SCOTTSBLUFF NE CLOUDY    39  27  62 W6        30.16F
OMAHA NE       CLOUDY    32  20  61 S10       30.46F WCI  24
DES MOINES IA  PTSUNNY   30  14  51 S7        30.47F WCI  23
DAVENPORT IA   SUNNY     27  13  55 CALM      30.50F
CHICAGO IL     PTSUNNY   28   8  43 W5        30.48F WCI  23
EAU CLAIRE WI  PTSUNNY   15   3  59 W5        30.46F WCI   8
LA CROSSE WI   MOSUNNY   22   7  52 S8        30.49F WCI  12
$$

  *****  SOME NATIONAL WEATHER *****

CITY           SKY/WX    TMP DP  RH WIND       PRES   REMARKS
LA GUARDIA NY  CLOUDY    36  22  56 NW18G30   29.82S
RALEIGH NC     MOSUNNY   47  16  29 NW14G28   30.09S
ATLANTA GA     MOSUNNY   49  23  36 NW18      30.27F
NEW ORLEANS LA CLOUDY    54  38  54 N12       30.35F
OKLAHOMA CITY  CLOUDY    47  23  38 E8        30.44F
ALBUQUERQUE NM FLURRIES  35  31  85 NE6       30.23F
SALT LAKE CITY CLOUDY    42  35  76 CALM      30.09F
LOS ANGELES CA CLOUDY    65  51  60 CALM      29.92F
BOISE ID       MOSUNNY   33  33 100 VRB3      30.28F
SEATTLE WA     MOSUNNY   43  39  87 VRB3      30.30F FOG
$$

*** WEATHER ACROSS MANITOBA...SASKATCHEWAN AND ONTARIO ***
                ***ONTARIO***

CITY           SKY/WX    TMP DP  RH WIND       PRES   REMARKS
GERALDTON      MOSUNNY   -2 -11  65 SW7       30.31F WCI -16
THUNDER BAY    PTSUNNY    9  -4  56 W7        30.40F WCI  -3
SIOUX LOOKOUT  PTSUNNY    3  -9  55 SW7       30.26F WCI  -9
TORONTO        MOSUNNY   12   1  62 NW21G30   30.25R WCI  -6
BIG TROUT LK   PTSUNNY   -2 -11  65 W8        30.14F WCI -17
PICKLE LAKE    PTSUNNY    0 -11  60 SW9       30.22F WCI -16
DRYDEN         LGT SNOW   3  -2  78 S12       30.23F WCI -13
KENORA         LGT SNOW   5   0  78 S14       30.19F WCI -12
$$
                *** MANITOBA***

CITY           SKY/WX    TMP DP  RH WIND       PRES   REMARKS
BRANDON        CLOUDY    18  14  86 W14       30.12F WCI   4
DAUPHIN        CLOUDY    19  14  79 W14       30.15S WCI   6
ISLAND LAKE    LGT SNOW   1  -6  71 W7        30.14F WCI -11
PILOT MOUND      N/A     23  18  80 W7          N/A  WCI  15
THE PAS        MOSUNNY    5  -2  72 NW9       30.25S WCI  -9
THOMPSON       MOSUNNY    0 -11  60 NW13      30.16S WCI -18
WINNIPEG       CLOUDY    14   9  79 S16G25    30.17F WCI  -2
LYNN LAKE      FLURRIES -11 -20  64 NW17G24   30.23S WCI -35
CHURCHILL      CRYSTALS -18 -27  63 NW26G36   30.12R BLWGSNOWWCI -49
GILLAM         MOSUNNY   -9 -18  64 NW9       30.12F WCI -27
$$
                ***SASKATCHEWAN***

CITY           SKY/WX    TMP DP  RH WIND       PRES   REMARKS
ESTEVAN        CLOUDY    25  23  93 W15       30.18S FOG     WCI  12
KINDERSLEY     CLOUDY    21  19  93 NE3       30.25F FOG
LLOYDMINSTER   CLOUDY    19  18  93 NE8       30.26S WCI   9
PRINCE ALBERT  FLURRIES  16  10  79 N8        30.29R WCI   5
REGINA         PTSUNNY   21  18  86 N17       30.22R WCI   7


USA.gov is the U.S. government's official web portal to all federal, state and local government web resources and services.